Retour au catalogue

CZ-6A DEB

ActifSSO
NORAD 54337·DEBRIS·🇨🇳 China

Lancé Nov 11, 2022 depuis Taiyuan Satellite Launch Center

Loading…

Prochains Passages (prochaines 24 heures)

TLE

FraisSource: Space-Track

Époque: Sep 14, 2026, 10:49 UTC

1 54337U 22151CG  26257.45085313  .00000266  00000-0  17311-3 0  9994
2 54337  98.8558 255.5011 0051251  90.6392 270.0652 14.09998329196944

Suivez CZ-6A DEB en temps réel avec AllMySat

Download on the App Store